This is the latest recevied weather packets stored in our database for station/object SV9FBP. If no packets are shown the sender has not sent any weather packets the latest 10 day(s).
| Time | Temp. | Humidity | Pressure | Rain* | Wind** | Luminosity | Snow |
|---|---|---|---|---|---|---|---|
| 1777962920 | 17.22° C | 63% | 1015.3 hPa | 0 mm | - | - | - |
| 1777962018 | 16.67° C | 67% | 1015.3 hPa | 0 mm | - | - | - |
| 1777961116 | 16.11° C | 70% | 1015.1 hPa | 0 mm | - | - | - |
| 1777960214 | 15.56° C | 71% | 1015.1 hPa | 0 mm | - | - | - |
| 1777959312 | 15° C | 71% | 1014.9 hPa | 0 mm | - | - | - |
| 1777958410 | 14.44° C | 71% | 1015 hPa | 0 mm | - | - | - |
| 1777957507 | 13.89° C | 71% | 1014.9 hPa | 0 mm | - | - | - |
| 1777956605 | 13.89° C | 70% | 1014.9 hPa | 0 mm | - | - | - |
| 1777955703 | 13.33° C | 70% | 1014.9 hPa | 0 mm | - | - | - |
| 1777954801 | 13.33° C | 69% | 1014.9 hPa | 0 mm | - | - | - |
| 1777953900 | 13.89° C | 68% | 1014.9 hPa | 0 mm | - | - | - |
| 1777952095 | 14.44° C | 68% | 1014.8 hPa | 0 mm | - | - | - |
| 1777951193 | 14.44° C | 67% | 1014.7 hPa | 0 mm | - | - | - |
| 1777950290 | 14.44° C | 68% | 1014.4 hPa | 0 mm | - | - | - |
| 1777949388 | 14.44° C | 68% | 1014.4 hPa | 0 mm | - | - | - |
| 1777948486 | 14.44° C | 66% | 1014.5 hPa | 0 mm | - | - | - |
| 1777947584 | 14.44° C | 63% | 1014.6 hPa | 0 mm | - | - | - |
| 1777946682 | 14.44° C | 61% | 1014.6 hPa | 0 mm | - | - | - |
| 1777945780 | 14.44° C | 61% | 1014.7 hPa | 0 mm | - | - | - |
| 1777944878 | 14.44° C | 61% | 1014.8 hPa | 0 mm | - | - | - |
| 1777943976 | 14.44° C | 61% | 1014.7 hPa | 0 mm | - | - | - |
| 1777943073 | 14.44° C | 61% | 1014.7 hPa | 0 mm | - | - | - |
| 1777942171 | 14.44° C | 61% | 1015 hPa | 0 mm | - | - | - |
| 1777941269 | 14.44° C | 60% | 1015.1 hPa | 0 mm | - | - | - |
| 1777940367 | 14.44° C | 58% | 1015.2 hPa | 0 mm | - | - | - |
* Rain latest hour (hover to see other rain measurements)
** Current wind speed in m/s (hover to see current wind gust speed)